sat.trackr.live / text

‹ back to catalog

YAOGAN-30 08B

NORAD 46808 · 2020-076B

PAYLOAD ACTIVE UNKNOWN

§ Identity

Operator
Country
PRC
Launch date
2020-10-26
Launch site
XICLF
Launch vehicle
Mass (kg)
RCS (m²)

External: N2YO · Heavens-Above · Gunter

§ Orbital elements

Epoch: 2026-05-25T04:04:01.464960Z

Period
95.83 min
Inclination
34.9938°
Eccentricity
0.0000911
Mean motion
15.02593560 rev/d
Perigee alt
558.3 km
Apogee alt
559.5 km
Semi-major
6,937.0 km
B*
1.6736e-4
RAAN
231.2742°
Arg perigee
211.9729°
Mean anomaly
148.0924°
Rev number
30,476

§ Raw data

YAOGAN-30 08B1 46808U 20076B   26145.16946140  .00002244  00000+0  16736-3 0  99972 46808  34.9938 231.2742 0000911 211.9729 148.0924 15.02593560304761

JSON: /api/v1/satellites/46808 · /tle

For live sub-satellite position, see the globe view (requires WebGL).

§ Visibility from observer

Set your observer location to see the next 7 days of passes ≥ 10°. The values pass through the URL so the page stays shareable.

No JS? Fill the form by hand. The geolocation button needs JavaScript.